• In Belarus
  • List of Countries
  • For 7 days
  • Water Temperature
  • Satellite Maps
  • Weather Map
  • Weather Widgets
  • user-avatar
    Login

    Hourly Weather Guarda

    Today, 18 October, Thursday

    Time Temperature Precipitation Wind Pressure Humidity
    00:00 +12°C° 0 mm 2 mps 684 mmHg 92%
    01:00 +10°C° 1.3 mm 2 mps 684 mmHg 92%
    02:00 +10°C° 1.3 mm 2 mps 683 mmHg 92%
    03:00 +10°C° 1.3 mm 2 mps 683 mmHg 93%
    04:00 +10°C° 0.4 mm 2 mps 683 mmHg 93%
    05:00 +10°C° 0.4 mm 2 mps 683 mmHg 93%
    06:00 +10°C° 0 mm 2 mps 683 mmHg 92%
    07:00 +11°C° 0.2 mm 3 mps 683 mmHg 87%
    08:00 +12°C° 0.2 mm 3 mps 683 mmHg 83%
    09:00 +12°C° 0.2 mm 3 mps 684 mmHg 79%
    10:00 +14°C° 0 mm 4 mps 684 mmHg 70%
    11:00 +17°C° 0 mm 4 mps 684 mmHg 62%
    12:00 +19°C° 0 mm 5 mps 685 mmHg 53%
    13:00 +19°C° 0 mm 5 mps 685 mmHg 49%
    14:00 +20°C° 0 mm 5 mps 684 mmHg 44%
    15:00 +21°C° 0 mm 5 mps 684 mmHg 40%
    16:00 +20°C° 0 mm 4 mps 684 mmHg 44%
    17:00 +18°C° 0 mm 4 mps 684 mmHg 48%
    18:00 +17°C° 0 mm 3 mps 684 mmHg 53%
    19:00 +15°C° 0 mm 4 mps 684 mmHg 57%
    20:00 +14°C° 0 mm 4 mps 684 mmHg 61%
    21:00 +13°C° 0 mm 4 mps 685 mmHg 66%
    22:00 +13°C° 0 mm 4 mps 685 mmHg 69%
    23:00 +12°C° 0 mm 4 mps 685 mmHg 73%

    Tomorrow, 19 October, Friday

    Time Temperature Precipitation Wind Pressure Humidity
    00:00 +12°C° 0 mm 4 mps 685 mmHg 77%
    01:00 +12°C° 0 mm 4 mps 685 mmHg 78%
    02:00 +11°C° 0 mm 4 mps 684 mmHg 80%
    03:00 +11°C° 0 mm 4 mps 684 mmHg 81%
    04:00 +11°C° 0 mm 4 mps 684 mmHg 80%
    05:00 +12°C° 0 mm 4 mps 684 mmHg 79%
    06:00 +12°C° 0 mm 5 mps 685 mmHg 78%
    07:00 +12°C° 0 mm 5 mps 685 mmHg 75%
    08:00 +13°C° 0 mm 6 mps 685 mmHg 72%
    09:00 +14°C° 0 mm 6 mps 686 mmHg 68%
    10:00 +15°C° 0 mm 6 mps 686 mmHg 66%
    11:00 +16°C° 0 mm 6 mps 686 mmHg 63%
    12:00 +17°C° 0 mm 6 mps 687 mmHg 61%
    13:00 +17°C° 0 mm 6 mps 686 mmHg 59%
    14:00 +19°C° 0 mm 6 mps 686 mmHg 57%
    15:00 +19°C° 0 mm 6 mps 686 mmHg 55%
    16:00 +17°C° 0 mm 5 mps 686 mmHg 58%
    17:00 +17°C° 0 mm 4 mps 686 mmHg 62%
    18:00 +16°C° 0 mm 3 mps 686 mmHg 66%
    19:00 +16°C° 0 mm 3 mps 687 mmHg 68%
    20:00 +14°C° 0 mm 3 mps 687 mmHg 70%
    21:00 +14°C° 0 mm 3 mps 688 mmHg 73%
    22:00 +13°C° 0 mm 3 mps 688 mmHg 75%
    23:00 +13°C° 0 mm 3 mps 688 mmHg 77%

    Day after tomorrow, 20 October, Saturday

    Time Temperature Precipitation Wind Pressure Humidity
    00:00 +12°C° 0 mm 3 mps 688 mmHg 79%
    01:00 +12°C° 0 mm 3 mps 688 mmHg 80%
    02:00 +12°C° 0 mm 3 mps 688 mmHg 82%
    03:00 +11°C° 0 mm 3 mps 688 mmHg 84%
    04:00 +11°C° 0 mm 3 mps 688 mmHg 85%
    05:00 +11°C° 0 mm 3 mps 688 mmHg 86%
    06:00 +11°C° 0 mm 3 mps 688 mmHg 87%
    07:00 +12°C° 0 mm 3 mps 688 mmHg 82%
    08:00 +13°C° 0 mm 4 mps 689 mmHg 76%
    09:00 +14°C° 0 mm 4 mps 689 mmHg 71%
    10:00 +16°C° 0 mm 5 mps 689 mmHg 63%
    11:00 +19°C° 0 mm 5 mps 690 mmHg 55%
    12:00 +21°C° 0 mm 5 mps 690 mmHg 47%
    13:00 +21°C° 0 mm 5 mps 690 mmHg 45%
    14:00 +22°C° 0 mm 5 mps 689 mmHg 43%
    15:00 +22°C° 0 mm 5 mps 689 mmHg 40%
    16:00 +21°C° 0 mm 4 mps 689 mmHg 45%
    17:00 +19°C° 0 mm 3 mps 689 mmHg 51%
    18:00 +18°C° 0 mm 3 mps 688 mmHg 56%
    19:00 +17°C° 0.1 mm 3 mps 689 mmHg 60%
    20:00 +16°C° 0.1 mm 2 mps 689 mmHg 63%
    21:00 +15°C° 0.1 mm 2 mps 689 mmHg 67%
    22:00 +15°C° 0 mm 2 mps 689 mmHg 70%
    23:00 +14°C° 0 mm 2 mps 689 mmHg 72%

    21 October, Sunday

    Time Temperature Precipitation Wind Pressure Humidity
    00:00 +14°C° 0 mm 2 mps 689 mmHg 75%
    01:00 +14°C° 0.1 mm 2 mps 689 mmHg 77%
    02:00 +14°C° 0.1 mm 2 mps 689 mmHg 79%
    03:00 +14°C° 0.1 mm 2 mps 689 mmHg 82%
    04:00 +13°C° 0 mm 2 mps 689 mmHg 83%
    05:00 +13°C° 0 mm 2 mps 689 mmHg 84%
    06:00 +13°C° 0 mm 2 mps 689 mmHg 86%
    07:00 +14°C° 0 mm 2 mps 689 mmHg 81%
    08:00 +15°C° 0 mm 2 mps 690 mmHg 77%
    09:00 +16°C° 0 mm 2 mps 690 mmHg 72%
    10:00 +17°C° 0 mm 3 mps 691 mmHg 66%
    11:00 +18°C° 0 mm 3 mps 691 mmHg 60%
    12:00 +20°C° 0 mm 3 mps 691 mmHg 55%
    13:00 +20°C° 0.2 mm 3 mps 691 mmHg 55%
    14:00 +20°C° 0.2 mm 3 mps 690 mmHg 55%
    15:00 +20°C° 0.2 mm 2 mps 690 mmHg 55%
    16:00 +18°C° 0.1 mm 2 mps 690 mmHg 60%
    17:00 +17°C° 0.1 mm 2 mps 689 mmHg 65%
    18:00 +16°C° 0.1 mm 1 mps 689 mmHg 70%
    19:00 +15°C° 0.2 mm 1 mps 689 mmHg 74%
    20:00 +15°C° 0.2 mm 1 mps 690 mmHg 77%
    21:00 +14°C° 0.2 mm 1 mps 690 mmHg 80%
    22:00 +14°C° 0.1 mm 1 mps 690 mmHg 81%
    23:00 +13°C° 0.1 mm 1 mps 690 mmHg 82%

    22 October, Monday

    Time Temperature Precipitation Wind Pressure Humidity
    00:00 +13°C° 0.1 mm 1 mps 690 mmHg 84%
    01:00 +13°C° 0 mm 1 mps 690 mmHg 86%
    02:00 +12°C° 0 mm 1 mps 690 mmHg 87%
    03:00 +12°C° 0 mm 1 mps 690 mmHg 89%
    04:00 +12°C° 0 mm 1 mps 690 mmHg 90%
    05:00 +12°C° 0 mm 1 mps 690 mmHg 91%
    06:00 +11°C° 0 mm 1 mps 690 mmHg 91%
    07:00 +13°C° 0 mm 1 mps 691 mmHg 86%
    08:00 +14°C° 0 mm 1 mps 691 mmHg 80%
    09:00 +16°C° 0 mm 1 mps 692 mmHg 74%
    10:00 +18°C° 0 mm 1 mps 692 mmHg 66%
    11:00 +19°C° 0 mm 2 mps 692 mmHg 59%
    12:00 +20°C° 0 mm 2 mps 693 mmHg 52%
    13:00 +21°C° 0.2 mm 2 mps 692 mmHg 50%
    14:00 +21°C° 0.2 mm 2 mps 692 mmHg 48%
    15:00 +21°C° 0.2 mm 2 mps 691 mmHg 46%
    16:00 +20°C° 0.2 mm 2 mps 691 mmHg 53%
    17:00 +18°C° 0.2 mm 2 mps 691 mmHg 60%
    18:00 +16°C° 0.2 mm 1 mps 691 mmHg 66%
    19:00 +16°C° 0 mm 1 mps 691 mmHg 69%
    20:00 +15°C° 0 mm 1 mps 691 mmHg 73%
    21:00 +14°C° 0 mm 1 mps 691 mmHg 76%
    22:00 +14°C° 0 mm 1 mps 691 mmHg 77%
    23:00 +14°C° 0 mm 1 mps 691 mmHg 79%

    23 October, Tuesday

    Time Temperature Precipitation Wind Pressure Humidity
    00:00 +13°C° 0 mm 1 mps 691 mmHg 80%
    01:00 +13°C° 0 mm 1 mps 691 mmHg 82%
    02:00 +13°C° 0 mm 1 mps 691 mmHg 83%
    03:00 +12°C° 0 mm 2 mps 691 mmHg 84%
    04:00 +12°C° 0 mm 2 mps 691 mmHg 85%
    05:00 +12°C° 0 mm 2 mps 691 mmHg 86%
    06:00 +12°C° 0 mm 2 mps 690 mmHg 87%
    07:00 +13°C° 0 mm 2 mps 691 mmHg 83%
    08:00 +13°C° 0 mm 3 mps 691 mmHg 78%
    09:00 +14°C° 0 mm 3 mps 691 mmHg 73%
    10:00 +17°C° 0 mm 3 mps 692 mmHg 66%
    11:00 +18°C° 0 mm 3 mps 692 mmHg 59%
    12:00 +20°C° 0 mm 3 mps 692 mmHg 52%
    13:00 +21°C° 0 mm 3 mps 692 mmHg 49%
    14:00 +21°C° 0 mm 3 mps 691 mmHg 47%
    15:00 +22°C° 0 mm 3 mps 691 mmHg 44%
    16:00 +20°C° 0 mm 3 mps 691 mmHg 47%
    17:00 +18°C° 0 mm 3 mps 690 mmHg 51%
    18:00 +17°C° 0 mm 2 mps 690 mmHg 54%
    19:00 +16°C° 0 mm 3 mps 690 mmHg 55%
    20:00 +14°C° 0 mm 3 mps 690 mmHg 55%
    21:00 +13°C° 0 mm 3 mps 690 mmHg 56%
    22:00 +12°C° 0 mm 3 mps 690 mmHg 57%
    23:00 +12°C° 0 mm 3 mps 690 mmHg 58%
    Show more